Weather History for Sierra Vista, AZ

Change the Weather History Date:

Monday, September 10, 2012

  Actual Average Record
Temperature  
Mean Temperature 71 °F -  
Max Temperature 78 °F 86 °F 97 °F (1990)
Min Temperature 64 °F 66 °F 57 °F (1987)
Cooling Degree Days 6    
Growing Degree Days 21 (Base 50)    
Moisture  
Dew Point 59 °F    
Average Humidity 72    
Maximum Humidity 94    
Minimum Humidity 47    
Precipitation  
Precipitation 0.48 in - - ()
Sea Level Pressure  
Sea Level Pressure 30.06 in    
Wind  
Wind Speed 4 mph (SW)    
Max Wind Speed 15 mph    
Max Gust Speed 20 mph    
Visibility 10 miles    
Events Rain , Thunderstorm    
Averages and records for this station are not official NWS values.
T = Trace of Precipitation, MM = Missing Value Source: NWS Daily Summary

Daily Weather History Graph

Daily Weather History Graph

Search for Another Location

Airport:

Trip Planner

Search our weather history database for the weather conditions in past years. The results will help you decide how hot, cold, wet, or windy it might be!

Date:

Astronomy

Sep. 10, 2012 Rise Set
Actual Time 6:02 AM MST 6:32 PM MST
Civil Twilight 5:38 AM MST 6:57 PM MST
Nautical Twilight 5:09 AM MST 7:26 PM MST
Astronomical Twilight 4:40 AM MST 7:55 PM MST
Moon 12:42 AM MST (9/10) 2:50 PM MST (9/10)
Length of Visible Light 13h 19m
Length of Day
12h 30m
Waning Crescent, 29% of the Moon is Illuminated
Sep 10
Waning Crescent
Sep 15
New
Sep 22
First Quarter
Sep 29
Full
Oct 8
Last Quarter

Hourly Weather History & Observations

Time (MST) Temp. Dew Point Humidity Pressure Visibility Wind Dir Wind Speed Gust Speed Precip Events Conditions
5:45 AM 66.2 °F 57.2 °F 73% 30.17 in 10.0 mi West 4.6 mph - N/A Rain Light Rain
5:55 AM 66.2 °F 57.2 °F 73% 30.00 in 10.0 mi WSW 3.5 mph - N/A Rain Light Rain
6:25 AM 66.2 °F 57.2 °F 73% 30.18 in 10.0 mi SW 5.8 mph - N/A   Mostly Cloudy
6:55 AM 69.8 °F 57.2 °F 64% 30.02 in 10.0 mi Calm Calm - N/A   Mostly Cloudy
7:24 AM 66.2 °F 57.2 °F 73% 30.19 in 10.0 mi NNW 3.5 mph - N/A Rain Light Rain
7:55 AM 66.2 °F 57.2 °F 73% 30.04 in 10.0 mi Calm Calm - N/A Rain Light Rain
8:55 AM 68.0 °F 57.2 °F 68% 30.05 in 10.0 mi Calm Calm - N/A   Mostly Cloudy
9:55 AM 69.8 °F 57.2 °F 64% 30.05 in 10.0 mi Calm Calm - N/A   Mostly Cloudy
10:55 AM 77.0 °F 57.2 °F 50% 30.02 in 10.0 mi Variable 3.5 mph - N/A   Mostly Cloudy
11:55 AM 78.8 °F 57.2 °F 47% 30.01 in 10.0 mi Calm Calm - N/A   Mostly Cloudy
12:38 PM 78.8 °F 57.2 °F 47% 30.17 in 10.0 mi Calm Calm - N/A Thunderstorm Thunderstorm
12:41 PM 78.8 °F 57.2 °F 47% 30.17 in 10.0 mi Calm Calm - N/A Rain , Thunderstorm Light Thunderstorms and Rain
12:55 PM 73.4 °F 57.2 °F 57% 30.02 in 7.0 mi Calm Calm - N/A Rain , Thunderstorm Light Thunderstorms and Rain
1:55 PM 66.2 °F 57.2 °F 73% 30.01 in 10.0 mi ESE 15.0 mph 19.6 mph N/A Thunderstorm Thunderstorm
2:28 PM 71.6 °F 57.2 °F 60% 30.14 in 10.0 mi SSW 4.6 mph - N/A Rain , Thunderstorm Light Thunderstorms and Rain
2:55 PM 66.2 °F 60.8 °F 83% 29.99 in 10.0 mi ESE 8.1 mph - N/A Rain , Thunderstorm Light Thunderstorms and Rain
3:55 PM 66.2 °F 60.8 °F 83% 30.02 in 10.0 mi Variable 6.9 mph - N/A Rain , Thunderstorm Light Thunderstorms and Rain
4:55 PM 66.2 °F 60.8 °F 83% 29.98 in 10.0 mi WSW 10.4 mph - N/A   Overcast
5:55 PM 66.2 °F 60.8 °F 83% 29.97 in 10.0 mi Calm Calm - N/A   Mostly Cloudy
6:37 PM 64.4 °F 62.6 °F 94% 30.14 in 10.0 mi Variable 3.5 mph - N/A Rain Light Rain Showers
6:55 PM 64.4 °F 62.6 °F 94% 30.01 in 10.0 mi Variable 3.5 mph - N/A Rain Light Rain Showers
7:55 PM 66.2 °F 60.8 °F 83% 30.01 in 10.0 mi SSW 9.2 mph - N/A   Mostly Cloudy
8:55 PM 66.2 °F 57.2 °F 73% 30.04 in 10.0 mi West 11.5 mph - N/A   Mostly Cloudy
9:55 PM 64.4 °F 59.0 °F 83% 30.02 in 10.0 mi Variable 6.9 mph - N/A   Mostly Cloudy
10:55 PM 64.4 °F 60.8 °F 88% 30.01 in 10.0 mi Variable 6.9 mph - N/A Rain Light Rain Showers